Laurinburg-Maxton, NC

12:38 PM EST on November 23, 2017 (GMT -0500)
Laurinburg-Maxton

Weather History for KMEB - November, 2012

Change the Weather History Date:

Friday, November 23, 2012

  Actual Average (KHFF) Record (KHFF)
Temperature  
Mean Temperature 47 °F -  
Max Temperature 66 °F 63 °F 77 °F (1999)
Min Temperature 28 °F 38 °F 25 °F (2008)
Degree Days  
Heating Degree Days 18    
Moisture  
Dew Point 34 °F    
Average Humidity 66    
Maximum Humidity 96    
Minimum Humidity 29    
Precipitation  
Precipitation 0.00 in - - ()
Sea Level Pressure  
Sea Level Pressure 30.05 in    
Wind  
Wind Speed 3 mph (SW)    
Max Wind Speed 14 mph    
Max Gust Speed 22 mph    
Visibility 10 miles    
Events      
Averages and records for this station are not official NWS values.
T = Trace of Precipitation, MM = Missing Value Source: NWS Daily Summary

Daily Weather History Graph

Daily Weather History Graph

Search for Another Location

Airport or City:

Trip Planner

Search our weather history database for the weather conditions in past years. The results will help you decide how hot, cold, wet, or windy it might be!

Date:

Astronomy

Nov. 23, 2012 Rise Set
Actual Time 6:59 AM EST 5:08 PM EST
Civil Twilight 6:32 AM EST 5:35 PM EST
Nautical Twilight 6:01 AM EST 6:06 PM EST
Astronomical Twilight 5:31 AM EST 6:36 PM EST
Moon 2:13 PM EST 2:26 AM EST
Length of Visible Light 11h 03m
Length of Day
10h 08m
Waxing Gibbous, 79% of the Moon is Illuminated
Nov 23
Waxing Gibbous
Nov 28
Full
Dec 6
Last Quarter
Dec 13
New
Dec 20
First Quarter

Hourly Weather History & Observations

Time (EST) Temp. Windchill Dew Point Humidity Pressure Visibility Wind Dir Wind Speed Gust Speed Precip Events Conditions
12:52 AM 33.1 °F - 28.0 °F 82% 30.17 in 10.0 mi Calm Calm - N/A   Clear
1:52 AM 30.0 °F - 27.0 °F 88% 30.17 in 10.0 mi Calm Calm - N/A   Clear
2:52 AM 30.0 °F - 27.0 °F 88% 30.16 in 10.0 mi Calm Calm - N/A   Clear
3:52 AM 28.0 °F - 26.1 °F 92% 30.15 in 10.0 mi Calm Calm - N/A   Clear
4:52 AM 28.9 °F - 26.1 °F 89% 30.16 in 10.0 mi Calm Calm - N/A   Clear
5:52 AM 28.0 °F - 26.1 °F 92% 30.16 in 10.0 mi Calm Calm - N/A   Clear
6:52 AM 28.0 °F - 26.1 °F 92% 30.16 in 10.0 mi Calm Calm - N/A   Clear
7:52 AM 30.9 °F - 30.0 °F 96% 30.17 in 10.0 mi Calm Calm - N/A   Clear
8:52 AM 39.9 °F - 34.0 °F 79% 30.15 in 10.0 mi Calm Calm - N/A   Clear
9:52 AM 52.0 °F - 33.1 °F 49% 30.14 in 10.0 mi SW 6.9 mph - N/A   Clear
10:52 AM 57.9 °F - 30.9 °F 36% 30.12 in 10.0 mi SW 6.9 mph - N/A   Clear
11:52 AM 63.0 °F - 30.0 °F 29% 30.08 in 10.0 mi SSW 11.5 mph - N/A   Clear
12:52 PM 64.9 °F - 34.0 °F 32% 30.02 in 10.0 mi SSW 8.1 mph - N/A   Clear
1:52 PM 66.0 °F - 36.0 °F 33% 30.00 in 10.0 mi SW 11.5 mph - N/A   Clear
2:52 PM 66.9 °F - 39.0 °F 36% 29.96 in 10.0 mi West 13.8 mph 21.9 mph N/A   Clear
3:52 PM 66.0 °F - 39.0 °F 37% 29.94 in 10.0 mi SW 11.5 mph - N/A   Clear
4:52 PM 61.0 °F - 39.0 °F 44% 29.94 in 10.0 mi SW 5.8 mph - N/A   Clear
5:52 PM 54.0 °F - 39.9 °F 59% 29.94 in 10.0 mi SW 5.8 mph - N/A   Clear
6:52 PM 54.0 °F - 41.0 °F 62% 29.94 in 10.0 mi WSW 3.5 mph - N/A   Clear
7:52 PM 51.1 °F - 41.0 °F 68% 29.93 in 10.0 mi WSW 4.6 mph - N/A   Clear
8:52 PM 48.9 °F - 42.1 °F 77% 29.92 in 10.0 mi WSW 3.5 mph - N/A   Mostly Cloudy
9:52 PM 50.0 °F - 43.0 °F 77% 29.90 in 10.0 mi Calm Calm - N/A   Overcast
10:52 PM 50.0 °F - 41.0 °F 71% 29.91 in 10.0 mi West 3.5 mph - N/A   Scattered Clouds
11:52 PM 46.0 °F 44.8 °F 41.0 °F 83% 29.91 in 10.0 mi West 3.5 mph - N/A   Clear